Time,TemperatureF,DewpointF,PressureIn,WindDirection,WindDirectionDegrees,WindSpeedMPH,WindSpeedGustMPH,Humidity,HourlyPrecipIn,Conditions,Clouds,dailyrainin,SoftwareType,DateUTC
2013-05-23 00:01:00,76.8,73.4,30.03,SSE,157,5.6,5.6,88,0.00,,,0.00,Graphweather,2013-05-23 04:01:00,
2013-05-23 00:02:00,76.8,73.4,30.03,SSE,157,5.6,5.6,88,0.00,,,0.00,Graphweather,2013-05-23 04:02:00,
2013-05-23 00:03:00,76.8,73.4,30.03,NNE,22,4.7,4.7,89,0.00,,,0.00,Graphweather,2013-05-23 04:03:00,
2013-05-23 00:07:00,76.8,73.4,30.00,SE,135,4.9,0.0,88,0.00,,,0.00,Graphweather,2013-05-23 04:07:00,
2013-05-23 00:12:00,76.8,73.4,30.00,NNE,22,3.8,4.9,89,0.00,,,0.00,Graphweather,2013-05-23 04:12:00,
2013-05-23 00:17:00,76.8,73.4,30.00,NNW,337,5.8,8.1,89,0.00,,,0.00,Graphweather,2013-05-23 04:17:00,
2013-05-23 00:22:00,76.6,73.4,30.00,NE,45,4.5,4.5,89,0.00,,,0.00,Graphweather,2013-05-23 04:22:00,
2013-05-23 00:28:00,76.6,73.4,30.00,ESE,112,4.3,4.3,89,0.00,,,0.00,Graphweather,2013-05-23 04:28:00,
2013-05-23 00:33:00,76.6,73.4,30.00,ESE,112,4.7,5.6,90,0.00,,,0.00,Graphweather,2013-05-23 04:33:00,
2013-05-23 00:38:00,76.6,73.4,30.00,SE,135,4.7,4.7,90,0.00,,,0.00,Graphweather,2013-05-23 04:38:00,
2013-05-23 00:43:00,76.6,73.4,30.00,East,90,4.3,6.3,90,0.00,,,0.00,Graphweather,2013-05-23 04:43:00,
2013-05-23 00:48:00,76.6,73.4,30.00,SSE,157,4.0,4.0,89,0.00,,,0.00,Graphweather,2013-05-23 04:48:00,
2013-05-23 00:53:00,76.6,73.4,30.00,WNW,292,3.8,3.8,88,0.00,,,0.00,Graphweather,2013-05-23 04:53:00,
2013-05-23 00:58:00,76.5,73.4,30.00,ESE,112,3.4,3.4,90,0.00,,,0.00,Graphweather,2013-05-23 04:58:00,
2013-05-23 01:03:00,76.5,73.4,30.00,East,90,4.3,4.3,89,0.00,,,0.00,Graphweather,2013-05-23 05:03:00,
2013-05-23 01:08:00,76.6,73.4,30.00,SW,225,4.5,4.5,90,0.00,,,0.00,Graphweather,2013-05-23 05:08:00,
2013-05-23 01:13:00,76.6,73.4,30.00,East,90,3.4,4.0,90,0.00,,,0.00,Graphweather,2013-05-23 05:13:00,
2013-05-23 01:18:00,76.6,73.4,30.00,East,90,4.3,4.3,89,0.00,,,0.00,Graphweather,2013-05-23 05:18:00,
2013-05-23 01:24:00,76.6,73.4,30.00,East,90,3.8,6.5,90,0.00,,,0.00,Graphweather,2013-05-23 05:24:00,
2013-05-23 01:29:00,76.8,73.4,30.00,ENE,67,4.3,4.3,90,0.00,,,0.00,Graphweather,2013-05-23 05:29:00,
2013-05-23 01:34:00,76.6,73.4,30.00,SSE,157,4.0,4.0,89,0.00,,,0.00,Graphweather,2013-05-23 05:34:00,
2013-05-23 01:39:00,76.6,73.4,30.00,SSW,202,4.0,4.0,89,0.00,,,0.00,Graphweather,2013-05-23 05:39:00,
2013-05-23 01:44:00,76.6,73.4,30.00,SW,225,3.8,3.8,90,0.00,,,0.00,Graphweather,2013-05-23 05:44:00,
2013-05-23 01:49:00,76.8,73.4,30.00,ENE,67,4.5,4.5,89,0.00,,,0.00,Graphweather,2013-05-23 05:49:00,
2013-05-23 01:54:00,76.8,73.4,30.00,ESE,112,4.5,7.2,89,0.00,,,0.00,Graphweather,2013-05-23 05:54:00,
2013-05-23 02:00:00,76.6,73.4,30.00,SSW,202,4.3,6.0,88,0.00,,,0.00,Graphweather,2013-05-23 06:00:00,
2013-05-23 02:05:00,76.3,73.4,30.00,SE,135,4.3,0.0,89,0.00,,,0.00,Graphweather,2013-05-23 06:05:00,
2013-05-23 02:10:00,76.1,73.4,30.00,SE,135,4.3,4.9,87,0.00,,,0.00,Graphweather,2013-05-23 06:10:00,
2013-05-23 02:15:00,76.3,71.6,30.00,SSE,157,4.7,0.0,86,0.00,,,0.00,Graphweather,2013-05-23 06:15:00,
2013-05-23 02:20:00,76.5,73.4,30.00,East,90,4.3,4.3,87,0.00,,,0.00,Graphweather,2013-05-23 06:20:00,
2013-05-23 02:25:00,76.6,73.4,29.97,NE,45,4.0,0.0,87,0.00,,,0.00,Graphweather,2013-05-23 06:25:00,
2013-05-23 02:30:00,76.5,71.6,29.97,ESE,112,3.4,0.0,86,0.00,,,0.00,Graphweather,2013-05-23 06:30:00,
2013-05-23 02:35:00,76.5,73.4,29.97,SSE,157,4.0,8.7,87,0.00,,,0.00,Graphweather,2013-05-23 06:35:00,
2013-05-23 02:40:00,76.5,71.6,30.00,NE,45,3.4,3.8,86,0.00,,,0.00,Graphweather,2013-05-23 06:40:00,
2013-05-23 02:45:00,76.5,73.4,30.00,SE,135,5.4,5.8,87,0.00,,,0.00,Graphweather,2013-05-23 06:45:00,
2013-05-23 02:50:00,76.5,73.4,30.00,SE,135,4.0,4.0,88,0.00,,,0.00,Graphweather,2013-05-23 06:50:00,
2013-05-23 02:55:00,76.5,71.6,30.00,WSW,247,6.5,6.5,86,0.00,,,0.00,Graphweather,2013-05-23 06:55:00,
2013-05-23 03:00:00,76.6,71.6,30.00,WNW,292,4.0,6.0,86,0.00,,,0.00,Graphweather,2013-05-23 07:00:00,
2013-05-23 03:05:00,76.6,71.6,30.00,SE,135,5.4,5.4,85,0.00,,,0.00,Graphweather,2013-05-23 07:05:00,
2013-05-23 03:10:00,76.5,71.6,29.97,East,90,4.0,4.0,85,0.00,,,0.00,Graphweather,2013-05-23 07:10:00,
2013-05-23 03:15:00,76.5,71.6,29.97,SSW,202,4.3,4.3,84,0.00,,,0.00,Graphweather,2013-05-23 07:15:00,
2013-05-23 03:21:00,76.5,69.8,29.97,SSW,202,4.3,4.3,78,0.00,,,0.00,Graphweather,2013-05-23 07:21:00,
2013-05-23 03:26:00,76.5,69.8,29.97,NE,45,4.3,4.3,81,0.00,,,0.00,Graphweather,2013-05-23 07:26:00,
2013-05-23 03:31:00,76.5,71.6,29.97,ESE,112,3.4,3.4,83,0.00,,,0.00,Graphweather,2013-05-23 07:31:00,
2013-05-23 03:36:00,76.5,71.6,29.97,East,90,4.5,4.5,86,0.00,,,0.00,Graphweather,2013-05-23 07:36:00,
2013-05-23 03:41:00,76.5,71.6,30.00,East,90,3.4,3.6,86,0.00,,,0.00,Graphweather,2013-05-23 07:41:00,
2013-05-23 03:46:00,76.5,71.6,30.00,South,180,4.0,4.9,85,0.00,,,0.00,Graphweather,2013-05-23 07:46:00,
2013-05-23 03:51:00,76.3,71.6,30.00,SSE,157,4.5,4.5,86,0.00,,,0.00,Graphweather,2013-05-23 07:51:00,
2013-05-23 03:57:00,76.3,71.6,30.00,East,90,4.5,5.8,86,0.00,,,0.00,Graphweather,2013-05-23 07:57:00,
2013-05-23 04:02:00,76.3,71.6,30.00,East,90,4.5,4.5,85,0.00,,,0.00,Graphweather,2013-05-23 08:02:00,
2013-05-23 04:07:00,76.5,69.8,30.00,ENE,67,4.5,4.9,81,0.00,,,0.00,Graphweather,2013-05-23 08:07:00,
2013-05-23 04:12:00,76.5,71.6,29.97,NE,45,3.8,4.9,83,0.00,,,0.00,Graphweather,2013-05-23 08:12:00,
2013-05-23 04:17:00,76.5,71.6,29.97,WSW,247,3.4,4.9,84,0.00,,,0.00,Graphweather,2013-05-23 08:17:00,
2013-05-23 04:22:00,76.3,71.6,29.97,NE,45,3.8,3.8,85,0.00,,,0.00,Graphweather,2013-05-23 08:22:00,
2013-05-23 04:27:00,76.3,71.6,29.97,ESE,112,3.4,3.8,85,0.00,,,0.00,Graphweather,2013-05-23 08:27:00,
2013-05-23 04:32:00,76.1,71.6,29.97,East,90,3.4,5.8,85,0.00,,,0.00,Graphweather,2013-05-23 08:32:00,
2013-05-23 04:37:00,76.3,71.6,30.00,East,90,3.6,5.8,85,0.00,,,0.00,Graphweather,2013-05-23 08:37:00,
2013-05-23 04:42:00,76.3,71.6,30.00,SSW,202,3.1,4.0,86,0.00,,,0.00,Graphweather,2013-05-23 08:42:00,
2013-05-23 04:47:00,76.3,71.6,30.00,East,90,3.6,5.4,86,0.00,,,0.00,Graphweather,2013-05-23 08:47:00,
2013-05-23 04:52:00,76.3,71.6,30.00,East,90,4.0,4.0,84,0.00,,,0.00,Graphweather,2013-05-23 08:52:00,
2013-05-23 04:57:00,76.1,71.6,30.00,East,90,3.1,4.7,85,0.00,,,0.00,Graphweather,2013-05-23 08:57:00,
2013-05-23 05:02:00,76.1,71.6,30.00,ENE,67,2.9,3.6,86,0.00,,,0.00,Graphweather,2013-05-23 09:02:00,
2013-05-23 05:08:00,76.1,71.6,30.00,SE,135,2.9,3.1,86,0.00,,,0.00,Graphweather,2013-05-23 09:08:00,
2013-05-23 05:13:00,76.1,71.6,30.00,South,180,3.8,4.0,84,0.00,,,0.00,Graphweather,2013-05-23 09:13:00,
2013-05-23 05:18:00,76.1,71.6,30.00,East,90,3.8,4.5,85,0.00,,,0.00,Graphweather,2013-05-23 09:18:00,
2013-05-23 05:23:00,76.1,71.6,30.00,SSW,202,4.3,4.3,85,0.00,,,0.00,Graphweather,2013-05-23 09:23:00,
2013-05-23 05:28:00,76.1,71.6,30.00,NNW,337,3.6,4.3,85,0.00,,,0.00,Graphweather,2013-05-23 09:28:00,
2013-05-23 05:33:00,75.9,71.6,30.00,SSE,157,3.6,3.6,85,0.00,,,0.00,Graphweather,2013-05-23 09:33:00,
2013-05-23 05:38:00,76.1,71.6,30.00,NE,45,3.6,3.6,85,0.00,,,0.00,Graphweather,2013-05-23 09:38:00,
2013-05-23 05:43:00,76.1,71.6,30.00,SE,135,4.0,4.0,85,0.00,,,0.00,Graphweather,2013-05-23 09:43:00,
2013-05-23 05:48:00,76.3,71.6,30.00,East,90,3.6,3.6,86,0.00,,,0.00,Graphweather,2013-05-23 09:48:00,
2013-05-23 05:53:00,76.5,71.6,30.00,SSW,202,2.9,4.3,84,0.00,,,0.00,Graphweather,2013-05-23 09:53:00,
2013-05-23 05:58:00,76.6,71.6,30.00,ENE,67,4.3,4.3,85,0.00,,,0.00,Graphweather,2013-05-23 09:58:00,
2013-05-23 06:03:00,76.6,71.6,30.00,ENE,67,3.4,3.6,84,0.00,,,0.00,Graphweather,2013-05-23 10:03:00,
2013-05-23 06:09:00,77.2,71.6,30.00,East,90,3.1,3.4,84,0.00,,,0.00,Graphweather,2013-05-23 10:09:00,
2013-05-23 06:14:00,78.8,73.4,30.00,East,90,3.1,3.8,84,0.00,,,0.00,Graphweather,2013-05-23 10:14:00,
2013-05-23 06:19:00,79.0,73.4,30.00,North,0,4.0,4.9,80,0.00,,,0.00,Graphweather,2013-05-23 10:19:00,
2013-05-23 06:24:00,78.3,71.6,29.97,East,90,4.0,0.0,80,0.00,,,0.00,Graphweather,2013-05-23 10:24:00,
2013-05-23 06:29:00,78.8,73.4,29.97,ESE,112,4.5,4.5,80,0.00,,,0.00,Graphweather,2013-05-23 10:29:00,
2013-05-23 06:34:00,79.0,71.6,29.97,East,90,3.8,4.9,77,0.00,,,0.00,Graphweather,2013-05-23 10:34:00,
2013-05-23 06:39:00,80.1,73.4,29.97,ESE,112,3.4,3.4,78,0.00,,,0.00,Graphweather,2013-05-23 10:39:00,
2013-05-23 06:44:00,79.2,73.4,29.97,North,0,4.3,4.3,79,0.00,,,0.00,Graphweather,2013-05-23 10:44:00,
2013-05-23 06:49:00,79.7,73.4,29.97,East,90,4.5,4.5,78,0.00,,,0.00,Graphweather,2013-05-23 10:49:00,
2013-05-23 06:54:00,80.8,73.4,30.00,North,0,3.6,3.6,77,0.00,,,0.00,Graphweather,2013-05-23 10:54:00,
2013-05-23 06:59:00,82.6,73.4,30.00,ESE,112,4.9,6.3,73,0.00,,,0.00,Graphweather,2013-05-23 10:59:00,
2013-05-23 07:04:00,81.0,73.4,30.00,West,270,3.1,3.1,77,0.00,,,0.00,Graphweather,2013-05-23 11:04:00,
2013-05-23 07:09:00,82.4,75.2,30.00,ESE,112,4.0,7.8,76,0.00,,,0.00,Graphweather,2013-05-23 11:09:00,
2013-05-23 07:14:00,81.5,73.4,30.00,SE,135,4.0,4.3,75,0.00,,,0.00,Graphweather,2013-05-23 11:14:00,
2013-05-23 07:20:00,82.0,73.4,30.00,SE,135,3.6,3.6,75,0.00,,,0.00,Graphweather,2013-05-23 11:20:00,
2013-05-23 07:25:00,82.0,73.4,30.00,East,90,4.9,4.9,74,0.00,,,0.00,Graphweather,2013-05-23 11:25:00,
2013-05-23 07:30:00,82.0,73.4,30.00,ENE,67,4.0,4.0,72,0.00,,,0.00,Graphweather,2013-05-23 11:30:00,
2013-05-23 07:35:00,83.1,73.4,30.00,SSE,157,4.3,4.3,70,0.00,,,0.00,Graphweather,2013-05-23 11:35:00,
2013-05-23 07:40:00,82.6,73.4,30.00,East,90,4.3,5.8,71,0.00,,,0.00,Graphweather,2013-05-23 11:40:00,
2013-05-23 07:45:00,83.8,75.2,30.00,WSW,247,3.6,5.6,74,0.00,,,0.00,Graphweather,2013-05-23 11:45:00,
2013-05-23 07:50:00,84.0,75.2,30.00,ESE,112,4.3,4.3,71,0.00,,,0.00,Graphweather,2013-05-23 11:50:00,
2013-05-23 07:55:00,85.1,75.2,30.03,ESE,112,3.8,5.4,70,0.00,,,0.00,Graphweather,2013-05-23 11:55:00,
2013-05-23 08:00:00,86.4,75.2,30.03,SE,135,3.1,3.6,67,0.00,,,0.00,Graphweather,2013-05-23 12:00:00,
2013-05-23 08:05:00,84.4,73.4,30.03,WNW,292,4.3,4.3,68,0.00,,,0.00,Graphweather,2013-05-23 12:05:00,
2013-05-23 08:11:00,84.6,73.4,30.00,NNE,22,4.7,6.3,69,0.00,,,0.00,Graphweather,2013-05-23 12:11:00,
2013-05-23 08:16:00,86.7,75.2,30.00,SSE,157,3.8,5.6,67,0.00,,,0.00,Graphweather,2013-05-23 12:16:00,
2013-05-23 08:21:00,87.1,75.2,30.00,NE,45,4.3,9.2,65,0.00,,,0.00,Graphweather,2013-05-23 12:21:00,
2013-05-23 08:26:00,83.7,73.4,30.03,SSE,157,5.8,5.8,69,0.00,,,0.00,Graphweather,2013-05-23 12:26:00,
2013-05-23 08:32:00,83.7,73.4,30.03,East,90,3.1,4.0,70,0.00,,,0.00,Graphweather,2013-05-23 12:32:00,
2013-05-23 08:37:00,85.5,73.4,30.03,SE,135,4.3,6.0,68,0.00,,,0.00,Graphweather,2013-05-23 12:37:00,
2013-05-23 08:42:00,86.0,73.4,30.03,East,90,4.7,5.6,67,0.00,,,0.00,Graphweather,2013-05-23 12:42:00,
2013-05-23 08:48:00,86.2,73.4,30.03,South,180,4.7,4.7,66,0.00,,,0.00,Graphweather,2013-05-23 12:48:00,
2013-05-23 08:53:00,86.4,75.2,30.03,SSE,157,4.5,4.5,67,0.00,,,0.00,Graphweather,2013-05-23 12:53:00,
2013-05-23 08:59:00,86.2,73.4,30.03,East,90,4.7,4.7,67,0.00,,,0.00,Graphweather,2013-05-23 12:59:00,
2013-05-23 09:04:00,87.1,75.2,30.03,SE,135,3.8,3.8,66,0.00,,,0.00,Graphweather,2013-05-23 13:04:00,
2013-05-23 09:10:00,87.4,75.2,30.03,East,90,4.3,6.5,66,0.00,,,0.00,Graphweather,2013-05-23 13:10:00,
2013-05-23 09:15:00,88.7,75.2,30.03,NE,45,3.8,3.8,64,0.00,,,0.00,Graphweather,2013-05-23 13:15:00,
2013-05-23 09:20:00,88.3,75.2,30.03,East,90,3.4,3.4,63,0.00,,,0.00,Graphweather,2013-05-23 13:20:00,
2013-05-23 09:25:00,86.7,73.4,30.03,SSE,157,4.5,5.6,65,0.00,,,0.00,Graphweather,2013-05-23 13:25:00,
2013-05-23 09:30:00,86.4,73.4,30.03,ESE,112,4.3,4.3,65,0.00,,,0.00,Graphweather,2013-05-23 13:30:00,
2013-05-23 09:35:00,85.8,73.4,30.03,East,90,4.5,5.4,66,0.00,,,0.00,Graphweather,2013-05-23 13:35:00,
2013-05-23 09:40:00,86.2,73.4,30.03,WSW,247,4.5,6.3,67,0.00,,,0.00,Graphweather,2013-05-23 13:40:00,
2013-05-23 09:46:00,86.7,75.2,30.03,SSE,157,3.8,4.3,67,0.00,,,0.00,Graphweather,2013-05-23 13:46:00,
2013-05-23 09:51:00,85.6,73.4,30.03,ENE,67,5.4,5.4,68,0.00,,,0.00,Graphweather,2013-05-23 13:51:00,
2013-05-23 09:56:00,84.7,73.4,30.03,East,90,3.6,3.6,68,0.00,,,0.00,Graphweather,2013-05-23 13:56:00,
2013-05-23 10:01:00,84.0,73.4,30.03,ESE,112,4.3,4.3,68,0.00,,,0.00,Graphweather,2013-05-23 14:01:00,
2013-05-23 10:06:00,84.6,73.4,30.03,SSW,202,5.8,5.8,68,0.00,,,0.00,Graphweather,2013-05-23 14:06:00,
2013-05-23 10:11:00,84.6,73.4,30.03,SSE,157,4.7,5.6,68,0.00,,,0.00,Graphweather,2013-05-23 14:11:00,
2013-05-23 10:17:00,85.6,73.4,30.03,East,90,3.8,3.8,67,0.00,,,0.00,Graphweather,2013-05-23 14:17:00,
2013-05-23 10:22:00,84.9,73.4,30.03,ENE,67,3.1,7.2,70,0.00,,,0.00,Graphweather,2013-05-23 14:22:00,
2013-05-23 10:27:00,85.6,75.2,30.03,SSE,157,3.6,4.0,70,0.00,,,0.00,Graphweather,2013-05-23 14:27:00,
2013-05-23 10:32:00,87.8,75.2,30.03,SE,135,3.1,3.4,67,0.00,,,0.00,Graphweather,2013-05-23 14:32:00,
2013-05-23 10:37:00,88.3,77.0,30.03,SE,135,3.1,3.4,67,0.00,,,0.00,Graphweather,2013-05-23 14:37:00,
2013-05-23 10:42:00,88.9,75.2,30.03,SE,135,3.4,3.4,64,0.00,,,0.00,Graphweather,2013-05-23 14:42:00,
2013-05-23 10:47:00,88.7,75.2,30.03,SE,135,3.4,3.4,63,0.00,,,0.00,Graphweather,2013-05-23 14:47:00,
2013-05-23 10:53:00,88.0,75.2,30.03,SE,135,3.1,3.1,64,0.00,,,0.00,Graphweather,2013-05-23 14:53:00,
2013-05-23 10:58:00,88.2,75.2,30.03,ESE,112,3.4,3.4,65,0.00,,,0.00,Graphweather,2013-05-23 14:58:00,
2013-05-23 11:03:00,88.2,75.2,30.03,SSE,157,3.6,3.6,65,0.00,,,0.00,Graphweather,2013-05-23 15:03:00,
2013-05-23 11:08:00,88.3,75.2,30.03,SE,135,3.8,3.8,65,0.00,,,0.00,Graphweather,2013-05-23 15:08:00,
2013-05-23 11:13:00,88.9,77.0,30.03,ESE,112,4.0,4.0,65,0.00,,,0.00,Graphweather,2013-05-23 15:13:00,
2013-05-23 11:19:00,89.8,75.2,30.03,SE,135,4.0,4.0,63,0.00,,,0.00,Graphweather,2013-05-23 15:19:00,
2013-05-23 11:24:00,90.3,77.0,30.03,East,90,3.1,3.6,63,0.00,,,0.00,Graphweather,2013-05-23 15:24:00,
2013-05-23 11:30:00,89.4,77.0,30.03,South,180,3.1,3.1,64,0.00,,,0.00,Graphweather,2013-05-23 15:30:00,
2013-05-23 11:35:00,88.9,77.0,30.03,SE,135,3.1,3.1,65,0.00,,,0.00,Graphweather,2013-05-23 15:35:00,
2013-05-23 11:40:00,87.6,75.2,30.03,ENE,67,2.9,2.9,66,0.00,,,0.00,Graphweather,2013-05-23 15:40:00,
2013-05-23 11:45:00,87.4,75.2,30.03,SSE,157,4.0,4.0,66,0.00,,,0.00,Graphweather,2013-05-23 15:45:00,
2013-05-23 11:50:00,87.4,75.2,30.03,SSW,202,4.5,4.9,66,0.00,,,0.00,Graphweather,2013-05-23 15:50:00,
2013-05-23 11:55:00,88.2,75.2,30.03,ESE,112,2.7,6.5,66,0.00,,,0.00,Graphweather,2013-05-23 15:55:00,
2013-05-23 12:00:00,88.2,75.2,30.03,North,0,4.3,4.3,65,0.00,,,0.00,Graphweather,2013-05-23 16:00:00,
2013-05-23 12:06:00,88.3,75.2,30.03,SE,135,2.5,2.5,65,0.00,,,0.00,Graphweather,2013-05-23 16:06:00,
2013-05-23 12:11:00,87.4,75.2,30.03,SSE,157,3.1,3.6,66,0.00,,,0.00,Graphweather,2013-05-23 16:11:00,
2013-05-23 12:16:00,87.6,75.2,30.03,ENE,67,2.7,3.6,67,0.00,,,0.00,Graphweather,2013-05-23 16:16:00,
2013-05-23 12:21:00,87.6,75.2,30.03,East,90,3.1,3.1,67,0.00,,,0.00,Graphweather,2013-05-23 16:21:00,
2013-05-23 12:26:00,88.2,77.0,30.03,North,0,3.1,4.0,67,0.00,,,0.00,Graphweather,2013-05-23 16:26:00,
2013-05-23 12:32:00,88.3,75.2,30.03,East,90,3.4,3.4,66,0.00,,,0.00,Graphweather,2013-05-23 16:32:00,
2013-05-23 12:37:00,86.7,75.2,30.03,SE,135,3.6,6.0,67,0.00,,,0.00,Graphweather,2013-05-23 16:37:00,
2013-05-23 12:42:00,86.5,75.2,30.03,ESE,112,2.9,4.3,68,0.00,,,0.00,Graphweather,2013-05-23 16:42:00,
2013-05-23 12:47:00,87.1,75.2,30.03,East,90,2.5,4.0,68,0.00,,,0.00,Graphweather,2013-05-23 16:47:00,
2013-05-23 12:52:00,86.4,75.2,30.03,SSW,202,4.0,5.4,67,0.00,,,0.00,Graphweather,2013-05-23 16:52:00,
2013-05-23 12:58:00,86.5,75.2,30.03,SSE,157,3.8,4.9,69,0.00,,,0.00,Graphweather,2013-05-23 16:58:00,
2013-05-23 13:03:00,86.9,75.2,30.03,SE,135,3.1,3.8,67,0.00,,,0.00,Graphweather,2013-05-23 17:03:00,
2013-05-23 13:08:00,87.3,75.2,30.03,East,90,3.1,3.1,67,0.00,,,0.00,Graphweather,2013-05-23 17:08:00,
2013-05-23 13:13:00,86.9,75.2,30.03,East,90,3.8,5.6,68,0.00,,,0.00,Graphweather,2013-05-23 17:13:00,
2013-05-23 13:18:00,86.0,75.2,30.03,SE,135,2.9,2.9,69,0.00,,,0.00,Graphweather,2013-05-23 17:18:00,
2013-05-23 13:24:00,85.8,75.2,30.03,ESE,112,3.1,3.1,71,0.00,,,0.00,Graphweather,2013-05-23 17:24:00,
2013-05-23 13:29:00,86.2,75.2,30.03,NE,45,4.3,5.6,69,0.00,,,0.00,Graphweather,2013-05-23 17:29:00,
2013-05-23 13:34:00,84.9,75.2,30.03,East,90,2.0,2.7,72,0.00,,,0.00,Graphweather,2013-05-23 17:34:00,
2013-05-23 13:39:00,85.1,75.2,30.00,ENE,67,4.0,4.0,70,0.00,,,0.00,Graphweather,2013-05-23 17:39:00,
2013-05-23 13:44:00,85.3,75.2,30.00,ESE,112,2.9,3.6,72,0.00,,,0.00,Graphweather,2013-05-23 17:44:00,
2013-05-23 13:49:00,85.1,75.2,30.00,East,90,3.8,4.9,72,0.00,,,0.00,Graphweather,2013-05-23 17:49:00,
2013-05-23 13:54:00,84.6,75.2,30.00,East,90,3.1,3.1,71,0.00,,,0.00,Graphweather,2013-05-23 17:54:00,
2013-05-23 14:00:00,84.0,75.2,30.00,SSW,202,4.0,6.5,72,0.00,,,0.00,Graphweather,2013-05-23 18:00:00,
2013-05-23 14:05:00,82.9,75.2,30.00,ESE,112,3.6,4.7,74,0.00,,,0.00,Graphweather,2013-05-23 18:05:00,
2013-05-23 14:10:00,81.5,75.2,30.00,SE,135,4.0,4.9,77,0.00,,,0.00,Graphweather,2013-05-23 18:10:00,
2013-05-23 14:15:00,81.0,75.2,30.00,NE,45,4.0,5.4,80,0.00,,,0.00,Graphweather,2013-05-23 18:15:00,
2013-05-23 14:20:00,80.2,73.4,30.00,North,0,4.5,10.5,79,0.00,,,0.00,Graphweather,2013-05-23 18:20:00,
2013-05-23 14:25:00,79.9,73.4,30.00,WSW,247,3.4,3.4,80,0.00,,,0.00,Graphweather,2013-05-23 18:25:00,
2013-05-23 14:31:00,79.5,75.2,30.00,SSE,157,4.5,4.5,84,0.00,,,0.00,Graphweather,2013-05-23 18:31:00,
2013-05-23 14:36:00,79.5,73.4,30.00,ESE,112,4.0,5.8,83,0.00,,,0.00,Graphweather,2013-05-23 18:36:00,
2013-05-23 14:41:00,79.3,75.2,30.00,NNE,22,3.6,3.6,84,0.00,,,0.00,Graphweather,2013-05-23 18:41:00,
2013-05-23 14:46:00,79.2,75.2,30.00,SE,135,3.8,5.6,85,0.00,,,0.00,Graphweather,2013-05-23 18:46:00,
2013-05-23 14:51:00,79.0,75.2,30.00,WSW,247,4.0,7.2,88,0.00,,,0.00,Graphweather,2013-05-23 18:51:00,
2013-05-23 14:56:00,77.2,73.4,29.97,WNW,292,3.4,3.4,89,0.00,,,0.00,Graphweather,2013-05-23 18:56:00,
2013-05-23 15:01:00,76.6,73.4,29.97,ESE,112,2.2,2.2,91,0.00,,,0.00,Graphweather,2013-05-23 19:01:00,
2013-05-23 15:06:00,76.6,73.4,29.97,East,90,3.6,3.6,92,0.00,,,0.00,Graphweather,2013-05-23 19:06:00,
2013-05-23 15:12:00,76.6,73.4,30.00,SSE,157,2.2,2.5,90,0.00,,,0.00,Graphweather,2013-05-23 19:12:00,
2013-05-23 15:17:00,77.2,73.4,30.00,ESE,112,3.1,3.1,88,0.00,,,0.00,Graphweather,2013-05-23 19:17:00,
2013-05-23 15:22:00,78.1,75.2,30.00,SSE,157,3.8,4.7,89,0.00,,,0.00,Graphweather,2013-05-23 19:22:00,
2013-05-23 15:27:00,79.2,75.2,30.00,SE,135,3.8,4.0,87,0.00,,,0.00,Graphweather,2013-05-23 19:27:00,
2013-05-23 15:32:00,80.1,75.2,30.00,East,90,2.5,2.9,86,0.00,,,0.00,Graphweather,2013-05-23 19:32:00,
2013-05-23 15:37:00,80.1,75.2,30.00,East,90,2.9,4.0,85,0.00,,,0.00,Graphweather,2013-05-23 19:37:00,
2013-05-23 15:42:00,80.4,75.2,30.00,ESE,112,2.2,2.7,84,0.00,,,0.00,Graphweather,2013-05-23 19:42:00,
2013-05-23 15:48:00,81.1,75.2,30.00,East,90,2.2,2.2,83,0.00,,,0.00,Graphweather,2013-05-23 19:48:00,
2013-05-23 15:53:00,81.5,77.0,30.00,SSE,157,2.7,3.6,83,0.00,,,0.00,Graphweather,2013-05-23 19:53:00,
2013-05-23 15:58:00,81.5,77.0,30.00,ESE,112,2.7,4.0,82,0.00,,,0.00,Graphweather,2013-05-23 19:58:00,
2013-05-23 16:03:00,82.4,77.0,30.00,ESE,112,2.2,2.2,82,0.00,,,0.00,Graphweather,2013-05-23 20:03:00,
2013-05-23 16:08:00,82.2,77.0,30.00,East,90,2.7,4.0,82,0.00,,,0.00,Graphweather,2013-05-23 20:08:00,
2013-05-23 16:13:00,81.3,75.2,30.00,East,90,3.6,4.0,83,0.00,,,0.00,Graphweather,2013-05-23 20:13:00,
2013-05-23 16:18:00,81.9,77.0,30.00,ESE,112,1.6,2.0,83,0.00,,,0.00,Graphweather,2013-05-23 20:18:00,
2013-05-23 16:23:00,82.0,77.0,30.00,South,180,2.2,2.2,83,0.00,,,0.00,Graphweather,2013-05-23 20:23:00,
2013-05-23 16:29:00,81.5,77.0,30.00,East,90,1.6,3.4,84,0.00,,,0.00,Graphweather,2013-05-23 20:29:00,
2013-05-23 16:34:00,81.7,77.0,30.00,East,90,2.0,2.5,84,0.00,,,0.00,Graphweather,2013-05-23 20:34:00,
2013-05-23 16:39:00,81.0,75.2,30.03,East,90,2.7,5.4,82,0.00,,,0.00,Graphweather,2013-05-23 20:39:00,
2013-05-23 16:44:00,80.4,75.2,30.03,ENE,67,2.2,3.6,83,0.00,,,0.00,Graphweather,2013-05-23 20:44:00,
2013-05-23 16:49:00,79.7,75.2,30.03,SE,135,2.9,2.9,83,0.00,,,0.00,Graphweather,2013-05-23 20:49:00,
2013-05-23 16:54:00,79.5,75.2,30.03,East,90,2.7,3.8,86,0.00,,,0.00,Graphweather,2013-05-23 20:54:00,
2013-05-23 17:00:00,79.5,75.2,30.03,East,90,1.6,2.7,87,0.00,,,0.00,Graphweather,2013-05-23 21:00:00,
2013-05-23 17:05:00,79.5,75.2,30.03,South,180,2.7,2.7,87,0.00,,,0.00,Graphweather,2013-05-23 21:05:00,
2013-05-23 17:10:00,79.2,75.2,30.03,ENE,67,2.0,3.8,88,0.00,,,0.00,Graphweather,2013-05-23 21:10:00,
2013-05-23 17:15:00,78.6,75.2,30.03,North,0,2.0,3.6,88,0.00,,,0.00,Graphweather,2013-05-23 21:15:00,
2013-05-23 17:20:00,77.9,75.2,30.03,ESE,112,2.7,3.4,89,0.00,,,0.00,Graphweather,2013-05-23 21:20:00,
2013-05-23 17:25:00,76.6,75.2,30.00,East,90,3.1,3.6,94,0.00,,,0.00,Graphweather,2013-05-23 21:25:00,
2013-05-23 17:30:00,75.6,75.2,30.00,East,90,1.6,1.6,95,0.04,,,0.04,Graphweather,2013-05-23 21:30:00,
2013-05-23 17:36:00,75.2,75.2,30.00,East,90,2.0,2.9,96,0.04,,,0.04,Graphweather,2013-05-23 21:36:00,
2013-05-23 17:41:00,75.0,75.2,30.00,ESE,112,1.6,2.2,97,0.04,,,0.04,Graphweather,2013-05-23 21:41:00,
2013-05-23 17:46:00,75.0,75.2,30.00,East,90,0.9,2.0,97,0.04,,,0.04,Graphweather,2013-05-23 21:46:00,
2013-05-23 17:51:00,74.7,73.4,30.00,ESE,112,2.2,2.2,97,0.04,,,0.04,Graphweather,2013-05-23 21:51:00,
2013-05-23 17:56:00,74.3,73.4,30.00,ESE,112,0.9,1.6,96,0.00,,,0.04,Graphweather,2013-05-23 21:56:00,
2013-05-23 18:01:00,74.1,73.4,30.00,ESE,112,1.1,1.6,96,0.00,,,0.04,Graphweather,2013-05-23 22:01:00,
2013-05-23 18:07:00,73.8,73.4,30.00,NE,45,2.0,2.7,96,0.00,,,0.04,Graphweather,2013-05-23 22:07:00,
2013-05-23 18:12:00,73.8,73.4,29.97,East,90,2.5,2.5,96,0.00,,,0.04,Graphweather,2013-05-23 22:12:00,
2013-05-23 18:17:00,73.8,73.4,29.97,NE,45,3.1,3.1,95,0.00,,,0.04,Graphweather,2013-05-23 22:17:00,
2013-05-23 18:22:00,73.8,73.4,30.00,ESE,112,2.5,2.5,96,0.00,,,0.04,Graphweather,2013-05-23 22:22:00,
2013-05-23 18:27:00,73.8,73.4,30.00,East,90,2.5,2.5,97,0.00,,,0.04,Graphweather,2013-05-23 22:27:00,
2013-05-23 18:32:00,73.9,73.4,30.00,East,90,2.7,2.7,97,0.00,,,0.04,Graphweather,2013-05-23 22:32:00,
2013-05-23 18:38:00,73.9,73.4,30.00,NE,45,3.1,3.6,97,0.00,,,0.04,Graphweather,2013-05-23 22:38:00,
2013-05-23 18:43:00,74.1,73.4,30.00,SSW,202,3.4,4.7,97,0.00,,,0.04,Graphweather,2013-05-23 22:43:00,
2013-05-23 18:48:00,74.3,75.2,30.00,ESE,112,4.3,4.7,98,0.00,,,0.04,Graphweather,2013-05-23 22:48:00,
2013-05-23 18:53:00,74.5,75.2,30.00,WSW,247,4.5,5.6,98,0.00,,,0.04,Graphweather,2013-05-23 22:53:00,
2013-05-23 18:58:00,74.3,75.2,30.00,WSW,247,3.8,3.8,98,0.00,,,0.04,Graphweather,2013-05-23 22:58:00,
2013-05-23 19:04:00,74.1,73.4,30.00,East,90,4.0,4.0,98,0.00,,,0.04,Graphweather,2013-05-23 23:04:00,
2013-05-23 19:09:00,73.9,73.4,30.00,East,90,2.9,3.8,98,0.00,,,0.04,Graphweather,2013-05-23 23:09:00,
2013-05-23 19:14:00,73.9,73.4,30.00,SE,135,2.9,2.9,98,0.00,,,0.04,Graphweather,2013-05-23 23:14:00,
2013-05-23 19:19:00,73.9,73.4,30.00,SSW,202,4.0,4.0,98,0.00,,,0.04,Graphweather,2013-05-23 23:19:00,
2013-05-23 19:24:00,73.9,73.4,30.00,SSW,202,2.9,5.4,98,0.00,,,0.04,Graphweather,2013-05-23 23:24:00,
2013-05-23 19:30:00,73.9,73.4,30.00,East,90,3.6,3.6,98,0.00,,,0.04,Graphweather,2013-05-23 23:30:00,
2013-05-23 19:41:00,73.2,73.4,30.03,East,90,2.9,2.9,98,0.00,,,0.04,Graphweather,2013-05-23 23:41:00,
2013-05-23 19:46:00,73.2,73.4,30.03,East,90,2.5,3.6,98,0.00,,,0.04,Graphweather,2013-05-23 23:46:00,
2013-05-23 19:51:00,73.2,73.4,30.03,SE,135,2.9,3.4,98,0.00,,,0.04,Graphweather,2013-05-23 23:51:00,
2013-05-23 19:56:00,72.9,73.4,30.03,ESE,112,3.1,4.3,98,0.00,,,0.04,Graphweather,2013-05-23 23:56:00,
2013-05-23 20:11:00,72.9,73.4,30.03,ESE,112,3.4,3.4,98,0.00,,,0.04,Graphweather,2013-05-24 00:11:00,
2013-05-23 20:26:00,73.4,73.4,30.03,SE,135,2.9,3.8,98,0.00,,,0.04,Graphweather,2013-05-24 00:26:00,
2013-05-23 20:31:00,73.6,73.4,30.03,East,90,2.7,3.1,98,0.00,,,0.04,Graphweather,2013-05-24 00:31:00,
2013-05-23 20:36:00,73.6,73.4,30.03,East,90,2.9,3.8,98,0.04,,,0.08,Graphweather,2013-05-24 00:36:00,
2013-05-23 20:41:00,73.4,73.4,30.03,SE,135,2.7,2.7,98,0.04,,,0.08,Graphweather,2013-05-24 00:41:00,
2013-05-23 21:00:00,73.4,73.4,30.03,East,90,2.9,2.9,98,0.00,,,0.08,Graphweather,2013-05-24 01:00:00,
2013-05-23 21:05:00,73.0,73.4,30.03,SE,135,2.7,2.7,98,0.00,,,0.08,Graphweather,2013-05-24 01:05:00,
2013-05-23 21:11:00,72.9,73.4,30.03,ESE,112,2.5,4.9,98,0.00,,,0.08,Graphweather,2013-05-24 01:11:00,
2013-05-23 21:16:00,72.9,73.4,30.03,ESE,112,2.5,2.7,98,0.00,,,0.08,Graphweather,2013-05-24 01:16:00,
2013-05-23 21:30:00,74.3,75.2,30.03,South,180,3.6,5.4,98,0.00,,,0.08,Graphweather,2013-05-24 01:30:00,
2013-05-23 21:35:00,74.7,75.2,30.03,ENE,67,4.7,4.7,98,0.00,,,0.08,Graphweather,2013-05-24 01:35:00,
2013-05-23 21:40:00,74.8,75.2,30.03,ENE,67,4.0,4.9,98,0.00,,,0.08,Graphweather,2013-05-24 01:40:00,
2013-05-23 21:45:00,75.0,75.2,30.03,East,90,4.9,7.2,98,0.00,,,0.08,Graphweather,2013-05-24 01:45:00,
2013-05-23 21:50:00,75.2,75.2,30.03,ENE,67,4.7,4.7,98,0.00,,,0.08,Graphweather,2013-05-24 01:50:00,
2013-05-23 21:55:00,75.4,75.2,30.03,SW,225,4.0,4.3,98,0.00,,,0.08,Graphweather,2013-05-24 01:55:00,
2013-05-23 22:01:00,75.6,75.2,30.03,East,90,3.8,3.8,98,0.00,,,0.08,Graphweather,2013-05-24 02:01:00,
2013-05-23 22:14:00,75.9,75.2,30.03,SSE,157,3.4,3.8,98,0.00,,,0.08,Graphweather,2013-05-24 02:14:00,
2013-05-23 22:20:00,75.9,75.2,30.03,SE,135,3.4,4.0,98,0.00,,,0.08,Graphweather,2013-05-24 02:20:00,
2013-05-23 22:25:00,76.1,75.2,30.03,ESE,112,4.0,4.0,97,0.00,,,0.08,Graphweather,2013-05-24 02:25:00,
2013-05-23 22:30:00,76.1,77.0,30.03,WNW,292,3.6,5.6,98,0.00,,,0.08,Graphweather,2013-05-24 02:30:00,
2013-05-23 22:35:00,76.3,77.0,30.03,East,90,2.9,4.0,98,0.00,,,0.08,Graphweather,2013-05-24 02:35:00,
2013-05-23 22:40:00,76.3,75.2,30.03,NNE,22,3.8,3.8,97,0.00,,,0.08,Graphweather,2013-05-24 02:40:00,
2013-05-23 22:45:00,76.3,75.2,30.03,East,90,3.4,3.6,97,0.00,,,0.08,Graphweather,2013-05-24 02:45:00,
2013-05-23 22:59:00,76.5,75.2,30.03,ESE,112,3.8,3.8,96,0.00,,,0.08,Graphweather,2013-05-24 02:59:00,
2013-05-23 23:17:00,76.6,75.2,30.03,ESE,112,3.8,0.0,95,0.00,,,0.08,Graphweather,2013-05-24 03:17:00,
2013-05-23 23:22:00,76.6,75.2,30.03,ESE,112,3.8,0.0,94,0.00,,,0.08,Graphweather,2013-05-24 03:22:00,
2013-05-23 23:27:00,76.6,75.2,30.03,ESE,112,3.8,0.0,94,0.00,,,0.08,Graphweather,2013-05-24 03:27:00,
2013-05-23 23:32:00,76.8,75.2,30.03,ESE,112,3.8,0.0,93,0.00,,,0.08,Graphweather,2013-05-24 03:32:00,
2013-05-23 23:37:00,76.6,75.2,30.03,ESE,112,3.8,0.0,94,0.00,,,0.08,Graphweather,2013-05-24 03:37:00,
2013-05-23 23:42:00,76.6,75.2,30.03,East,90,4.0,4.0,94,0.00,,,0.08,Graphweather,2013-05-24 03:42:00,
2013-05-23 23:48:00,76.6,75.2,30.03,SE,135,4.3,4.3,94,0.00,,,0.08,Graphweather,2013-05-24 03:48:00,
2013-05-23 23:53:00,76.6,75.2,30.00,SE,135,3.4,3.4,94,0.00,,,0.08,Graphweather,2013-05-24 03:53:00,
2013-05-23 23:58:00,76.6,75.2,30.00,ESE,112,3.6,3.8,95,0.00,,,0.08,Graphweather,2013-05-24 03:58:00,